Home   Weather   Sedona   Past weeks
Flag for USA

Past Weather in Sedona, Arizona, USA — Yesterday and Last 2 Weeks

Now
48 °F

Clear.


Feels Like: 48 °F
Forecast: 92 / 65 °F
Wind: No wind

Location: Flagstaff Pulliam Airport

Current Time: Jun 19, 2019 at 12:03:51 am

Latest Report: Jun 18, 2019 at 10:57 pm


Visibility: 10 mi

Pressure: 30.00 "Hg (25.69 "Hg at 1282m altitude)

Humidity: 44%

Dew Point: 27 °F

Location of SedonaLocation

Past Weather in Sedona — Graph

°F

Sedona Temperature Yesterday

Maximum temperature yesterday: 76 °F (at 3:57 pm)
Minimum temperature yesterday: 42 °F (at 4:57 am)
Average temperature yesterday: 62 °F

High & Low Weather Summary for the Past Weeks

 TemperatureHumidityPressure
High82 °F (Jun 12, 2:57 pm)86% (Jun 5, 4:57 am)30.23 "Hg (Jun 5, 4:57 am)
Low36 °F (Jun 4, 4:57 am)12% (Jun 11, 5:57 pm)29.80 "Hg (Jun 16, 6:57 pm)
Average62 °F36%29.96 "Hg
* Reported Jun 3 10:57 pm — Jun 18 10:57 pm, Sedona. Weather by CustomWeather, © 2019

Note: Actual official high and low records may vary slightly from our data, if they occured in-between our weather recording intervals... More about our weather records

Advertising

Sedona Weather History for the Previous 24 Hours

Scroll right to see more
 ConditionsComfort  
Time TempWeatherWind HumidityBarometerVisibility
10:57 pm
Tue, Jun 18
48 °FClear.No wind44%30.00 "Hg10 mi
9:57 pm54 °FClear.No wind35%29.98 "Hg10 mi
8:57 pm57 °FClear.No wind34%29.96 "Hg10 mi
7:57 pm65 °FClear.3 mph24%29.92 "Hg10 mi
6:57 pm71 °FSunny.9 mph19%29.90 "Hg10 mi
5:57 pm74 °FSunny.14 mph17%29.93 "Hg10 mi
4:57 pm75 °FSunny.10 mph18%29.94 "Hg10 mi
3:57 pm76 °FSunny.7 mph18%29.95 "Hg10 mi
2:57 pm75 °FPassing clouds.8 mph19%29.96 "Hg7 mi
1:57 pm75 °FSunny.10 mph19%29.97 "Hg10 mi
12:57 pm75 °FSunny.15 mph18%29.97 "Hg10 mi
11:57 am75 °FScattered clouds.13 mph19%29.98 "Hg10 mi
10:57 am72 °FSunny.6 mph20%29.98 "Hg10 mi
9:57 am71 °FSunny.6 mph24%29.96 "Hg10 mi
8:57 am68 °FSunny.8 mph28%29.96 "Hg10 mi
7:57 am64 °FSunny.8 mph32%29.96 "Hg10 mi
6:57 am60 °FSunny.3 mph39%29.94 "Hg10 mi
5:57 am45 °FSunny.3 mph60%29.96 "Hg10 mi
4:57 am42 °FClear.No wind62%29.94 "Hg10 mi
3:57 am44 °FClear.No wind55%29.93 "Hg10 mi
2:57 am45 °FClear.No wind51%29.93 "Hg10 mi
1:57 am44 °FClear.No wind51%29.93 "Hg10 mi
12:57 am45 °FClear.No wind49%29.93 "Hg10 mi
Weather by CustomWeather, © 2019

See weather overview